Location: Northcutt
(34.7304°N, 84.4305°W)
Time: 03:40:29
(UTC+00:00)

A-11 Canister half - Pass Details

Date: 12 October 2022
Orbit: 1524 x 1685 km, 47.3° (Epoch: 01 December)

Event Time Altitude Azimuth Distance (km) Brightness Sun altitude
Rises 19:58:28 0° 271° (W) 4,682 12.1 34.1°
Reaches altitude 10° 20:01:47 10° 278° (W) 3,692 11.7 33.6°
Maximum altitude 20:10:26 42° 347° (NNW) 2,069 9.8 32.3°
Drops below altitude 10° 20:19:10 10° 56° (ENE) 3,717 10.6 30.8°
Sets 20:22:32 0° 64° (ENE) 4,717 11.0 30.3°
